Weather History for Two Harbors, MN

Change the Weather History Date:

Sunday, November 13, 2011

  Actual Average Record
Temperature  
Mean Temperature 38 °F -  
Max Temperature 48 °F 38 °F 68 °F (1999)
Min Temperature 28 °F 26 °F -1 °F (1986)
Degree Days  
Heating Degree Days 27    
Moisture  
Dew Point 27 °F    
Average Humidity 71    
Maximum Humidity 86    
Minimum Humidity 50    
Precipitation  
Precipitation 0.00 in - - ()
Sea Level Pressure  
Sea Level Pressure 29.17 in    
Wind  
Wind Speed 4 mph (West)    
Max Wind Speed 13 mph    
Max Gust Speed 21 mph    
Visibility 10 miles    
Events      
Averages and records for this station are not official NWS values.
T = Trace of Precipitation, MM = Missing Value Source: NWS Daily Summary

Daily Weather History Graph

Daily Weather History Graph

Search for Another Location

Airport:

Trip Planner

Search our weather history database for the weather conditions in past years. The results will help you decide how hot, cold, wet, or windy it might be!

Date:

Astronomy

Nov. 13, 2011 Rise Set
Actual Time 7:07 AM CST 4:34 PM CST
Civil Twilight 6:34 AM CST 5:07 PM CST
Nautical Twilight 5:57 AM CST 5:44 PM CST
Astronomical Twilight 5:21 AM CST 6:20 PM CST
Moon 6:36 PM CST (11/13) 9:47 AM CST (11/13)
Length of Visible Light 10h 33m
Length of Day
9h 27m
Waning Gibbous, 92% of the Moon is Illuminated
Nov 13
Waning Gibbous
Nov 18
Last Quarter
Nov 25
New
Dec 2
First Quarter
Dec 10
Full

Hourly Weather History & Observations

Time (CST) Temp. Windchill Dew Point Humidity Pressure Visibility Wind Dir Wind Speed Gust Speed Precip Events Conditions
12:13 AM 33.8 °F - 28.4 °F 81% 29.14 in 10.0 mi Calm Calm - N/A   Clear
12:33 AM 33.8 °F - 28.4 °F 81% 29.13 in 10.0 mi Calm Calm - N/A   Clear
12:53 AM 32.0 °F - 26.6 °F 80% 29.12 in 10.0 mi Calm Calm - N/A   Clear
1:13 AM 30.2 °F - 26.6 °F 86% 29.12 in 10.0 mi Calm Calm - N/A   Clear
1:33 AM 30.2 °F - 26.6 °F 86% 29.12 in 10.0 mi Calm Calm - N/A   Clear
1:53 AM 28.4 °F - 24.8 °F 86% 29.11 in 10.0 mi Calm Calm - N/A   Clear
2:13 AM 28.4 °F - 23.0 °F 80% 29.11 in 10.0 mi Calm Calm - N/A   Clear
2:33 AM 28.4 °F - 23.0 °F 80% 29.11 in 10.0 mi Calm Calm - N/A   Clear
2:53 AM 28.4 °F - 23.0 °F 80% 29.10 in 10.0 mi Calm Calm - N/A   Clear
3:13 AM 28.4 °F 24.6 °F 23.0 °F 80% 29.10 in 10.0 mi West 3.5 mph - N/A   Clear
3:33 AM 30.2 °F 25.4 °F 24.8 °F 80% 29.10 in 10.0 mi West 4.6 mph - N/A   Clear
3:53 AM 28.4 °F - 24.8 °F 86% 29.09 in 7.0 mi Calm Calm - N/A   Clear
4:13 AM 28.4 °F - 24.8 °F 86% 29.09 in 7.0 mi Calm Calm - N/A   Clear
4:32 AM 30.2 °F - 26.6 °F 86% 29.09 in 10.0 mi Calm Calm - N/A   Clear
4:53 AM 30.2 °F 26.7 °F 24.8 °F 80% 29.09 in 10.0 mi WSW 3.5 mph - N/A   Clear
5:32 AM 30.2 °F 25.4 °F 26.6 °F 86% 29.10 in 10.0 mi WSW 4.6 mph - N/A   Clear
6:33 AM 30.2 °F 26.7 °F 26.6 °F 86% 29.10 in 7.0 mi West 3.5 mph - N/A   Clear
6:53 AM 32.0 °F 27.5 °F 26.6 °F 80% 29.11 in 10.0 mi SW 4.6 mph - N/A   Clear
7:13 AM 30.2 °F - 26.6 °F 86% 29.12 in 7.0 mi Calm Calm - N/A   Clear
7:32 AM 32.0 °F 28.7 °F 26.6 °F 80% 29.12 in 10.0 mi SW 3.5 mph - N/A   Clear
7:53 AM 32.0 °F 27.5 °F 26.6 °F 80% 29.12 in 10.0 mi WSW 4.6 mph - N/A   Clear
8:13 AM 33.8 °F 30.8 °F 28.4 °F 81% 29.12 in 10.0 mi SW 3.5 mph - N/A   Clear
8:32 AM 35.6 °F 31.7 °F 30.2 °F 81% 29.12 in 10.0 mi WSW 4.6 mph - N/A   Clear
8:53 AM 39.2 °F 35.0 °F 32.0 °F 75% 29.12 in 10.0 mi WSW 5.8 mph - N/A   Clear
9:13 AM 42.8 °F 40.1 °F 32.0 °F 66% 29.13 in 10.0 mi West 4.6 mph - N/A   Clear
9:32 AM 42.8 °F 38.0 °F 30.2 °F 61% 29.13 in 10.0 mi West 8.1 mph - N/A   Clear
9:53 AM 44.6 °F 40.7 °F 30.2 °F 57% 29.14 in 10.0 mi West 6.9 mph - N/A   Clear
10:13 AM 44.6 °F 42.2 °F 30.2 °F 57% 29.15 in 10.0 mi West 4.6 mph - N/A   Clear
10:33 AM 46.4 °F 42.9 °F 30.2 °F 53% 29.15 in 10.0 mi West 6.9 mph - N/A   Clear
10:53 AM 46.4 °F 42.4 °F 30.2 °F 53% 29.15 in 10.0 mi West 8.1 mph - N/A   Clear
11:13 AM 48.2 °F - 30.2 °F 50% 29.15 in 10.0 mi West 5.8 mph - N/A   Clear
11:32 AM 48.2 °F - 30.2 °F 50% 29.15 in 10.0 mi West 11.5 mph 17.3 mph N/A   Clear
11:53 AM 48.2 °F - 30.2 °F 50% 29.15 in 10.0 mi West 8.1 mph - N/A   Clear
12:13 PM 48.2 °F - 30.2 °F 50% 29.15 in 10.0 mi West 10.4 mph - N/A   Clear
12:33 PM 46.4 °F 41.9 °F 28.4 °F 50% 29.16 in 10.0 mi WNW 9.2 mph 16.1 mph N/A   Clear
12:53 PM 46.4 °F 41.5 °F 30.2 °F 53% 29.16 in 10.0 mi West 10.4 mph 16.1 mph N/A   Clear
1:13 PM 44.6 °F 39.7 °F 28.4 °F 53% 29.16 in 10.0 mi West 9.2 mph 17.3 mph N/A   Clear
1:32 PM 41.0 °F 35.8 °F 28.4 °F 61% 29.18 in 10.0 mi WNW 8.1 mph 18.4 mph N/A   Clear
1:53 PM 39.2 °F 33.0 °F 28.4 °F 65% 29.18 in 10.0 mi WNW 9.2 mph - N/A   Clear
2:13 PM 37.4 °F 30.8 °F 28.4 °F 70% 29.18 in 10.0 mi West 9.2 mph 20.7 mph N/A   Clear
2:33 PM 37.4 °F 31.4 °F 26.6 °F 65% 29.20 in 10.0 mi West 8.1 mph - N/A   Clear
2:53 PM 37.4 °F 30.3 °F 26.6 °F 65% 29.21 in 10.0 mi WNW 10.4 mph 16.1 mph N/A   Scattered Clouds
3:13 PM 37.4 °F 29.3 °F 26.6 °F 65% 29.22 in 10.0 mi West 12.7 mph 18.4 mph N/A   Overcast
3:33 PM 35.6 °F 29.2 °F 26.6 °F 70% 29.23 in 10.0 mi West 8.1 mph 16.1 mph N/A   Overcast
3:53 PM 35.6 °F 29.9 °F 26.6 °F 70% 29.24 in 10.0 mi WNW 6.9 mph - N/A   Overcast
4:13 PM 35.6 °F 30.7 °F 26.6 °F 70% 29.24 in 10.0 mi West 5.8 mph 18.4 mph N/A   Overcast
4:33 PM 35.6 °F 30.7 °F 26.6 °F 70% 29.24 in 10.0 mi West 5.8 mph - N/A   Overcast
4:53 PM 35.6 °F 30.7 °F 26.6 °F 70% 29.25 in 10.0 mi West 5.8 mph - N/A   Overcast
5:33 PM 35.6 °F 28.6 °F 26.6 °F 70% 29.27 in 10.0 mi West 9.2 mph - N/A   Overcast
5:52 PM 35.6 °F 30.7 °F 26.6 °F 70% 29.28 in 10.0 mi West 5.8 mph - N/A   Overcast
6:13 PM 35.6 °F 30.7 °F 26.6 °F 70% 29.28 in 10.0 mi WSW 5.8 mph - N/A   Overcast
6:33 PM 35.6 °F 29.2 °F 26.6 °F 70% 29.30 in 10.0 mi West 8.1 mph - N/A   Overcast
6:53 PM 35.6 °F 29.9 °F 26.6 °F 70% 29.30 in 10.0 mi WSW 6.9 mph - N/A   Overcast
7:13 PM 35.6 °F 30.7 °F 26.6 °F 70% 29.31 in 10.0 mi WSW 5.8 mph - N/A   Overcast
7:32 PM 35.6 °F 30.7 °F 26.6 °F 70% 29.31 in 10.0 mi WSW 5.8 mph - N/A   Overcast
7:53 PM 35.6 °F 29.2 °F 26.6 °F 70% 29.30 in 10.0 mi West 8.1 mph - N/A   Overcast
8:13 PM 35.6 °F 29.2 °F 26.6 °F 70% 29.31 in 10.0 mi West 8.1 mph - N/A   Overcast
8:53 PM 35.6 °F 29.2 °F 26.6 °F 70% 29.32 in 10.0 mi WSW 8.1 mph - N/A   Overcast
9:13 PM 35.6 °F 28.6 °F 26.6 °F 70% 29.34 in 10.0 mi WSW 9.2 mph - N/A   Overcast
9:33 PM 35.6 °F 28.6 °F 26.6 °F 70% 29.34 in 10.0 mi West 9.2 mph - N/A   Overcast
9:53 PM 35.6 °F 28.6 °F 26.6 °F 70% 29.34 in 10.0 mi WSW 9.2 mph - N/A   Overcast
10:13 PM 35.6 °F 31.7 °F 26.6 °F 70% 29.35 in 10.0 mi WSW 4.6 mph - N/A   Overcast
10:33 PM 33.8 °F 27.7 °F 26.6 °F 75% 29.35 in 10.0 mi WSW 6.9 mph - N/A   Mostly Cloudy
10:53 PM 32.0 °F 28.7 °F 24.8 °F 75% 29.36 in 10.0 mi SW 3.5 mph - N/A   Scattered Clouds
11:13 PM 30.2 °F 26.7 °F 24.8 °F 80% 29.36 in 10.0 mi SW 3.5 mph - N/A   Clear
11:33 PM 30.2 °F 24.3 °F 24.8 °F 80% 29.37 in 10.0 mi SW 5.8 mph - N/A   Scattered Clouds
11:53 PM 30.2 °F 25.4 °F 24.8 °F 80% 29.36 in 10.0 mi SW 4.6 mph - N/A   Overcast